• Em Portugal
  • Lista de países
  • Para 7 dias
  • Temperatura da água
  • Mapas de satélite
  • Mapa do tempo
  • Widgets de tempo
  • user-avatar
    Iniciar Sessão

    Previsão horária em Zenica

    Hoje, 25 Setembro, Terça-feira

    Tempo Temperatura Precipitação Vento Pressão Humidade
    00:00 +2°C° 0 mm 2 m/s 684 mmHg 86%
    01:00 +2°C° 0 mm 2 m/s 684 mmHg 87%
    02:00 +2°C° 0 mm 2 m/s 684 mmHg 87%
    03:00 +2°C° 0 mm 2 m/s 684 mmHg 88%
    04:00 +2°C° 0 mm 2 m/s 684 mmHg 88%
    05:00 +2°C° 0 mm 2 m/s 685 mmHg 86%
    06:00 +3°C° 0 mm 2 m/s 685 mmHg 84%
    07:00 +3°C° 0 mm 2 m/s 686 mmHg 82%
    08:00 +4°C° 0 mm 3 m/s 686 mmHg 73%
    09:00 +5°C° 0 mm 4 m/s 687 mmHg 64%
    10:00 +7°C° 0 mm 5 m/s 687 mmHg 55%
    11:00 +7°C° 0 mm 5 m/s 687 mmHg 51%
    12:00 +8°C° 0 mm 5 m/s 687 mmHg 48%
    13:00 +9°C° 0 mm 6 m/s 687 mmHg 44%
    14:00 +8°C° 0 mm 5 m/s 687 mmHg 45%
    15:00 +8°C° 0 mm 5 m/s 687 mmHg 47%
    16:00 +7°C° 0 mm 5 m/s 686 mmHg 48%
    17:00 +5°C° 0 mm 4 m/s 687 mmHg 55%
    18:00 +4°C° 0 mm 4 m/s 687 mmHg 62%
    19:00 +2°C° 0 mm 3 m/s 687 mmHg 68%
    20:00 +1°C° 0 mm 3 m/s 687 mmHg 71%
    21:00 +1°C° 0 mm 3 m/s 687 mmHg 73%
    22:00 +1°C° 0 mm 2 m/s 687 mmHg 75%
    23:00 +1°C° 0 mm 2 m/s 687 mmHg 77%

    Amanhã, 26 Setembro, Quarta-feira

    Tempo Temperatura Precipitação Vento Pressão Humidade
    00:00 -1°C° 0 mm 2 m/s 687 mmHg 79%
    01:00 -1°C° 0 mm 2 m/s 688 mmHg 80%
    02:00 -1°C° 0 mm 2 m/s 687 mmHg 82%
    03:00 -2°C° 0 mm 2 m/s 687 mmHg 84%
    04:00 -2°C° 0 mm 2 m/s 687 mmHg 85%
    05:00 -1°C° 0 mm 2 m/s 688 mmHg 81%
    06:00 +1°C° 0 mm 2 m/s 688 mmHg 76%
    07:00 +1°C° 0 mm 2 m/s 689 mmHg 72%
    08:00 +4°C° 0 mm 2 m/s 689 mmHg 61%
    09:00 +5°C° 0 mm 3 m/s 690 mmHg 51%
    10:00 +9°C° 0 mm 3 m/s 690 mmHg 40%
    11:00 +9°C° 0 mm 3 m/s 690 mmHg 39%
    12:00 +10°C° 0 mm 3 m/s 690 mmHg 37%
    13:00 +11°C° 0 mm 3 m/s 690 mmHg 35%
    14:00 +11°C° 0 mm 3 m/s 690 mmHg 37%
    15:00 +11°C° 0 mm 3 m/s 689 mmHg 39%
    16:00 +10°C° 0 mm 2 m/s 689 mmHg 41%
    17:00 +8°C° 0 mm 2 m/s 689 mmHg 49%
    18:00 +6°C° 0 mm 1 m/s 688 mmHg 56%
    19:00 +4°C° 0 mm 1 m/s 688 mmHg 64%
    20:00 +4°C° 0 mm 1 m/s 688 mmHg 65%
    21:00 +3°C° 0 mm 1 m/s 688 mmHg 67%
    22:00 +3°C° 0 mm 1 m/s 688 mmHg 68%
    23:00 +3°C° 0 mm 1 m/s 688 mmHg 67%

    Depois de amanhã, 27 Setembro, Quinta-feira

    Tempo Temperatura Precipitação Vento Pressão Humidade
    00:00 +2°C° 0 mm 1 m/s 688 mmHg 67%
    01:00 +2°C° 0 mm 1 m/s 688 mmHg 66%
    02:00 +2°C° 0 mm 1 m/s 687 mmHg 65%
    03:00 +2°C° 0 mm 1 m/s 687 mmHg 63%
    04:00 +2°C° 0 mm 1 m/s 687 mmHg 62%
    05:00 +3°C° 0 mm 1 m/s 687 mmHg 58%
    06:00 +4°C° 0 mm 1 m/s 687 mmHg 55%
    07:00 +6°C° 0 mm 1 m/s 687 mmHg 52%
    08:00 +8°C° 0 mm 1 m/s 688 mmHg 45%
    09:00 +11°C° 0 mm 1 m/s 688 mmHg 37%
    10:00 +14°C° 0 mm 2 m/s 688 mmHg 30%
    11:00 +15°C° 0 mm 2 m/s 688 mmHg 29%
    12:00 +16°C° 0 mm 2 m/s 688 mmHg 28%
    13:00 +17°C° 0 mm 2 m/s 688 mmHg 27%
    14:00 +16°C° 0 mm 2 m/s 687 mmHg 30%
    15:00 +16°C° 0 mm 2 m/s 686 mmHg 33%
    16:00 +15°C° 0 mm 2 m/s 686 mmHg 37%
    17:00 +12°C° 0 mm 2 m/s 685 mmHg 43%
    18:00 +9°C° 0 mm 2 m/s 684 mmHg 48%
    19:00 +7°C° 0 mm 1 m/s 684 mmHg 54%
    20:00 +7°C° 0 mm 1 m/s 684 mmHg 54%
    21:00 +6°C° 0 mm 1 m/s 683 mmHg 55%
    22:00 +6°C° 0 mm 1 m/s 683 mmHg 56%
    23:00 +6°C° 0 mm 1 m/s 683 mmHg 55%

    28 Setembro, Sexta-feira

    Tempo Temperatura Precipitação Vento Pressão Humidade
    00:00 +6°C° 0 mm 1 m/s 682 mmHg 54%
    01:00 +5°C° 0 mm 1 m/s 682 mmHg 53%
    02:00 +5°C° 0 mm 1 m/s 682 mmHg 52%
    03:00 +5°C° 0 mm 1 m/s 681 mmHg 52%
    04:00 +5°C° 0 mm 1 m/s 681 mmHg 51%
    05:00 +6°C° 0 mm 1 m/s 681 mmHg 51%
    06:00 +7°C° 0 mm 1 m/s 681 mmHg 51%
    07:00 +8°C° 0 mm 1 m/s 681 mmHg 51%
    08:00 +10°C° 0 mm 1 m/s 681 mmHg 46%
    09:00 +13°C° 0 mm 2 m/s 682 mmHg 42%
    10:00 +16°C° 0 mm 2 m/s 682 mmHg 37%
    11:00 +17°C° 0 mm 2 m/s 682 mmHg 37%
    12:00 +18°C° 0 mm 2 m/s 681 mmHg 37%
    13:00 +19°C° 0 mm 3 m/s 681 mmHg 37%
    14:00 +18°C° 0 mm 2 m/s 681 mmHg 40%
    15:00 +18°C° 0 mm 2 m/s 680 mmHg 43%
    16:00 +17°C° 0 mm 2 m/s 680 mmHg 46%
    17:00 +14°C° 0 mm 2 m/s 679 mmHg 53%
    18:00 +12°C° 0 mm 1 m/s 679 mmHg 61%
    19:00 +9°C° 0 mm 1 m/s 678 mmHg 69%
    20:00 +8°C° 0 mm 1 m/s 678 mmHg 70%
    21:00 +8°C° 0 mm 1 m/s 678 mmHg 71%
    22:00 +7°C° 0 mm 1 m/s 678 mmHg 72%
    23:00 +7°C° 0 mm 1 m/s 678 mmHg 73%

    29 Setembro, Sábado

    Tempo Temperatura Precipitação Vento Pressão Humidade
    00:00 +7°C° 0 mm 1 m/s 678 mmHg 73%
    01:00 +7°C° 0 mm 1 m/s 677 mmHg 74%
    02:00 +6°C° 0 mm 1 m/s 677 mmHg 74%
    03:00 +6°C° 0 mm 1 m/s 677 mmHg 74%
    04:00 +6°C° 0 mm 1 m/s 677 mmHg 74%
    05:00 +7°C° 0 mm 1 m/s 678 mmHg 72%
    06:00 +8°C° 0 mm 1 m/s 678 mmHg 69%
    07:00 +8°C° 0 mm 1 m/s 678 mmHg 67%
    08:00 +11°C° 0 mm 1 m/s 679 mmHg 59%
    09:00 +14°C° 0 mm 2 m/s 680 mmHg 52%
    10:00 +16°C° 0 mm 2 m/s 680 mmHg 44%
    11:00 +17°C° 0 mm 2 m/s 680 mmHg 44%
    12:00 +17°C° 0 mm 3 m/s 680 mmHg 44%
    13:00 +18°C° 0 mm 3 m/s 680 mmHg 44%
    14:00 +17°C° 0 mm 3 m/s 680 mmHg 48%
    15:00 +16°C° 0 mm 3 m/s 680 mmHg 52%
    16:00 +16°C° 0 mm 3 m/s 680 mmHg 55%
    17:00 +13°C° 0 mm 3 m/s 680 mmHg 62%
    18:00 +12°C° 0 mm 2 m/s 680 mmHg 69%
    19:00 +10°C° 0 mm 2 m/s 680 mmHg 76%
    20:00 +9°C° 0.1 mm 2 m/s 680 mmHg 79%
    21:00 +10°C° 0.1 mm 1 m/s 680 mmHg 81%
    22:00 +9°C° 0.1 mm 1 m/s 680 mmHg 84%
    23:00 +9°C° 0.1 mm 1 m/s 680 mmHg 86%

    30 Setembro, Domingo

    Tempo Temperatura Precipitação Vento Pressão Humidade
    00:00 +8°C° 0.1 mm 1 m/s 680 mmHg 88%
    01:00 +8°C° 0.1 mm 1 m/s 680 mmHg 90%
    02:00 +8°C° 0 mm 1 m/s 680 mmHg 91%
    03:00 +7°C° 0 mm 1 m/s 680 mmHg 91%
    04:00 +7°C° 0 mm 1 m/s 680 mmHg 92%
    05:00 +7°C° 0 mm 1 m/s 680 mmHg 91%
    06:00 +8°C° 0 mm 1 m/s 680 mmHg 89%
    07:00 +8°C° 0 mm 1 m/s 681 mmHg 87%
    08:00 +10°C° 0 mm 1 m/s 681 mmHg 78%
    09:00 +13°C° 0 mm 1 m/s 681 mmHg 68%
    10:00 +15°C° 0 mm 1 m/s 682 mmHg 59%
    11:00 +16°C° 0 mm 1 m/s 682 mmHg 54%
    12:00 +19°C° 0 mm 1 m/s 682 mmHg 50%
    13:00 +20°C° 0 mm 1 m/s 682 mmHg 46%
    14:00 +19°C° 0.1 mm 1 m/s 681 mmHg 50%
    15:00 +18°C° 0.1 mm 1 m/s 681 mmHg 54%
    16:00 +16°C° 0.1 mm 1 m/s 681 mmHg 58%
    17:00 +14°C° 0 mm 1 m/s 680 mmHg 66%
    18:00 +12°C° 0 mm 1 m/s 680 mmHg 73%
    19:00 +9°C° 0 mm 0 m/s 680 mmHg 80%
    20:00 +9°C° 0 mm 0 m/s 680 mmHg 81%
    21:00 +8°C° 0 mm 0 m/s 680 mmHg 83%
    22:00 +9°C° 0 mm 1 m/s 680 mmHg 84%
    23:00 +9°C° 0 mm 1 m/s 680 mmHg 84%
    Mostrar mais